Regional Weather Roundup
Issued by NWS

Home | Current Version | Previous Version | Text Only | Print | Product List | Glossary On
Versions: 1 2 3 4 5 6 7 8 9 10 11 12 13 14 15 16 17 18 19 20 21 22 23 24 25 26 27
000
ASCA42 TJSJ 200010
RWRPR
PUERTO RICO/U.S. VIRGIN ISLANDS HOURLY WEATHER ROUNDUP
NATIONAL WEATHER SERVICE SAN JUAN PR
800 PM AST THU OCT 19 2017

PRZ001>002-007>008-010-200100-
PUERTO RICO

CITY           SKY/WX    TMP DP  RH WIND       PRES   REMARKS
SAN JUAN LMM   PTCLDY    82  75  78 E13       29.99R
PONCE          MOCLDY    81  72  74 E3        29.98R FOG
AGUADILLA      CLEAR     81  73  78 E6        29.98R HAZE
$$

VIZ001>002-200100-
U.S. VIRGIN ISLANDS

CITY           SKY/WX    TMP DP  RH WIND       PRES   REMARKS
CHRISTIANSTED  PTCLDY    84  73  70 E12       29.98R DUST    HX  91
$$

HOURLY WEATHER ROUNDUP FOR THE NEWS MEDIA

CITY           SKY/WX    TMP DP  RH WIND       PRES   REMARKS
NEW YORK       PTCLDY    64  49  57 SW13      30.10S
NEWARK         PTCLDY    66  43  43 SW13      30.09S
CHICAGO        CLOUDY    57  28  33 SE8       30.16S
HARTFORD       CLEAR     59  54  83 SW13      30.05F
BOSTON         PTCLDY    61  49  64 SW16G26   30.00S
DALLAS         CLOUDY    77  50  38 SE12      30.06R
PHILADELPHIA   PTCLDY    65  47  52 SW12      30.13S
LOS ANGELES    MOSUNNY   70  61  73 SW9       29.87F
WASHINGTON DC  PTCLDY    58  49  72 S3        30.15R



USA.gov is the U.S. government's official web portal to all federal, state and local government web resources and services.